Regional Weather Roundup
Issued by NWS Newport/Morehead, NC

Home | Current Version | Previous Version | Text Only | Print | Product List | Glossary On
Versions: 1 2 3 4 5 6 7 8 9 10 11 12 13 14 15 16 17 18 19 20 21 22 23 24 25 26 27 28 29 30 31 32 33 34 35 36 37 38 39 40 41 42 43 44 45 46 47 48 49 50
000
ASUS42 KMHX 260826
RWRMHX
WEATHER ROUNDUP FOR EASTERN NORTH CAROLINA
NATIONAL WEATHER SERVICE NEWPORT/MOREHEAD CITY NC
400 AM EDT WED JUL 26 2017

NOTE: "FAIR" INDICATES FEW OR NO CLOUDS BELOW 12,000 FEET
WITH NO SIGNIFICANT WEATHER AND/OR OBSTRUCTIONS TO VISIBILITY

NCZ015>017-031-032-045>047-102-103-260900-
NORTH COAST

CITY           SKY/WX    TMP DP  RH WIND       PRES   REMARKS
EDENTON        CLEAR     70  66  89 CALM      30.15R
ELIZABETH CITY CLEAR     71  70  96 NE7       30.14S
KITTY HAWK     SUNNY     75  68  79 E3        30.12S
MANTEO         CLEAR     74  68  81 E12       30.13S

$$

NCZ045>047-081-094-103-104-260900-
CENTRAL COAST

CITY           SKY/WX    TMP DP  RH WIND       PRES   REMARKS
FRISCO         CLOUDY    76  69  79 E6        30.11F

$$

NCZ095-097-098-100-101-260900-
SOUTHERN COAST

CITY           SKY/WX    TMP DP  RH WIND       PRES   REMARKS
BEAUFORT       CLOUDY    78  69  73 E9G17     30.11R
CEDAR ISLAND   NOT AVBL
JACKSONVILLE   CLOUDY    76  72  87 NE5       30.10R
PINEY ISLAND   CLOUDY   N/A N/A N/A E15       30.11R
WILMINGTON     CLOUDY    78  73  84 E10       30.08S


$$

NCZ011>013-027>030-043-044-078>080-089-090>093-098-260900-
COASTAL PLAIN

CITY           SKY/WX    TMP DP  RH WIND       PRES   REMARKS
AHOSKIE          N/A     66  65  97 N3        30.16R
CLINTON        CLOUDY    76  69  80 NE5       30.12R
ELIZABETHTOWN  NOT AVBL
GOLDSBORO      CLOUDY    75  70  83 NE7       30.11S
GREENVILLE     CLEAR     68  68 100 N3        30.14F
HAVELOCK       CLOUDY    79  69  71 E12       30.11S
KENANSVILLE    CLOUDY    73  68  83 CALM      30.12S
KINSTON        MOCLDY    72  67  84 N3        30.14R
NEW BERN       CLOUDY    76  68  76 NE7       30.12S
RICHLANDS      CLOUDY    72  70  93 NE6       30.12R
ROCKY MOUNT    PTCLDY    71  67  87 NE3       30.14S
WASHINGTON     MOCLDY    70  66  88 CALM      30.14R
WHITEVILLE     MOCLDY    76  74  96 NE7       30.07S

$$

AMZ130-135-150-152-154-156-158-170-250-252-270-ANZ085-086-088-633-658-670-260900-
MARINE OBSERVATIONS

STATION/POSITION TIME  TEMP    WIND        PRES    WAVE   SWELL
                       AIR SEA DIR/SP/G            HT/PER HT/PER
                 (UTC) (F)     (DEG/KT/KT) (MB)    (FT/S) (FT/S)
CHESAPEAKE LIGHT NOT AVBL
64 E VA BEACH    0750   76 77   60/ 14/ 16 1020.8    4/ 7   2/ 7
DUCK             0800   75 75   70/ 14/ 15 1020.1
2 E DUCK         0800      74                N/A     3/ 5
OREGON INLET     0800   74 74   50/  9/ 12 1020.0
13E OREGON INLT  0748      74                N/A     3/ 7   2/ 7
HATTERAS CG      0800   76 78   70/  9/ 11 1019.5
DIAMOND BUOY     0750   81 84   50/ 14/ 16 1019.2    3/ 5   2/11
CAPE LOOKOUT     0800   79      60/ 19/ 21 1019.2
BEAUFORT LAB     0800   78 80   70/  7/ 14 1018.9
30 SE NEW RVR IN 0808   80 84   80/ 17/ 23 1018.7
30 SE NEW RVR IN 0813      83                N/A     5/ 5
27 SE WRIGHTSVLE 0808   81 83  100/ 16/ 21 1018.1
5 SE WRIGHTSVLE  0808   80 82   90/ 17/ 23 1018.3
225 S CAPE HAT   0750   83 83  220/ 10/ 12 1019.2    3/ 6   3/ 6
41 SE CHARLESTON 0810   81 83  320/  4/  6 1016.9

$$




USA.gov is the U.S. government's official web portal to all federal, state and local government web resources and services.